Location: Unspecified
(42.9300°N, 71.1866°W)
Time: 13:23:40
(UTC-04:00)

GENESIS II - Visible Passes

Search period start: 23 October 2017 00:00
Search period end: 02 November 2017 00:00
Orbit: 507 x 527 km, 64.5° (Epoch: 23 October)

Date Brightness Start Highest point End Pass type
(mag) Time Alt. Az. Time Alt. Az. Time Alt. Az.
23 Oct 6.7 19:02:42 10° W 19:05:40 20° NW 19:08:39 10° N visible
24 Oct 6.7 18:47:25 10° W 18:50:21 19° NW 18:53:17 10° N visible
25 Oct 6.7 18:32:08 10° W 18:35:01 19° NW 18:37:55 10° N visible
26 Oct 6.7 18:16:51 10° W 18:19:41 19° NW 18:22:32 10° N visible
